Regional Weather Roundup
Issued by NWS

Home | Current Version | Previous Version | Graphics & Text | Print | Product List | Glossary On
Versions: 1 2 3 4 5 6 7 8 9 10 11 12 13 14 15 16 17 18 19 20 21 22 23 24 25 26 27 28 29 30 31 32 33 34 35 36 37 38 39 40 41 42 43 44 45 46 47 48 49 50
000
ASUS43 KIND 290209
RWRIN

WEATHER ROUNDUP FOR INDIANA
NATIONAL WEATHER SERVICE INDIANAPOLIS IN
900 PM EST WED JAN 28 2015

NOTE: "FAIR" INDICATES FEW OR NO CLOUDS BELOW 12,000 FEET WITH NO
SIGNIFICANT WEATHER AND/OR OBSTRUCTIONS TO VISIBILITY.

* - STATION DOES NOT REPORT WEATHER SUCH AS PRECIPITATION OR FOG.

+ - STATION NOT QUALITY CONTROLLED BY THE NATIONAL WEATHER SERVICE.
    USE DATA WITH CAUTION...ESPECIALLY DEWPOINT AND RELATIVE
    HUMIDITY OBSERVATIONS.

INZ001>003-010>013-019-020-290300-
NORTHWEST INDIANA

CITY           SKY/WX    TMP DP  RH WIND       PRES   REMARKS
GARY /AIRPORT/ CLOUDY    34  16  47 S14G30    29.96F WCI  24
KNOX *+        FAIR      30   9  41 SE20      30.01F WCI  18
LA PORTE +     MOCLDY    32  22  66 SE13G20   30.00F WCI  22
MICHIGAN CITY+ MOCLDY    32  16  51 SE7G17    29.99F WCI  26
MONTICELLO +   MOCLDY    32  21  63 SE13G20   30.02F WCI  22
RENSSELAER +   MOCLDY    32  27  80 SE16G23   29.99F WCI  21
VALPARAISO     MOCLDY    31  20  63 SE14      29.99F WCI  21

$$

LMZ046-743>745-290300-
SOUTHERN LAKE MICHIGAN

STATION/POSITION TIME  TEMP WIND        PRES
                       AIR  DIR/SP/G
                 (UTC) (F)  (DEG/KT/KT) (MB)
MICHIGAN CITY    0200   31  130/ 18/ 23   N/A

$$

INZ004-005-014>016-021>024-290300-
NORTH CENTRAL INDIANA

CITY           SKY/WX    TMP DP  RH WIND       PRES   REMARKS
ELKHART        CLOUDY    27  16  63 SE13G20   30.07F WCI  16
GOSHEN         CLOUDY    27  18  69 SE15G24   30.07F WCI  15
LOGANSPORT +   MOCLDY    32  23  69 SE14      30.06F WCI  22
PERU/GRISSOM   MOCLDY    31  22  69 SE17      30.05F WCI  19
ROCHESTER +    MOCLDY    32  23  69 SE13      30.06F WCI  22
SOUTH BEND     CLOUDY    28  18  66 SE20G25   30.04F WCI  15
WARSAW +       CLOUDY    27  19  74 SE10G17   30.08F WCI  17

$$

INZ006>009-017-018-025>027-290300-
NORTHEAST INDIANA

CITY           SKY/WX    TMP DP  RH WIND       PRES   REMARKS
ANGOLA *+      CLEAR     21  16  79 SE13      30.11F WCI   9
AUBURN +       CLOUDY    27  16  63 SE6       30.14F WCI  20
FORT WAYNE     CLOUDY    25  17  72 SE12      30.13F WCI  14
HUNTINGTON +   MOCLDY    27  15  62 SE9       30.12S WCI  17

$$

INZ028-029-035-036-043>045-051>053-290300-
WEST CENTRAL INDIANA

CITY           SKY/WX    TMP DP  RH WIND       PRES   REMARKS
CRAWFORDSVL +  MOCLDY    31  15  50 SE16G23   30.04F WCI  20
GREENCASTLE +  PTCLDY    32  14  47 SE14G20   30.06F WCI  22
LAFAYETTE      MOCLDY    33  19  56 SE15G23   30.02F WCI  23
TERRE HAUTE    PTCLDY    34  20  56 SE15      30.05F WCI  24

$$

INZ030>032-037>040-046>048-054>057-064-065-290300-
CENTRAL INDIANA

CITY           SKY/WX    TMP DP  RH WIND       PRES   REMARKS
CP ATTERBURY + PTCLDY    32  19  59 SE10G17   30.14F WCI  24
INDIANAPOLIS   MOCLDY    30  17  58 SE17      30.09F WCI  18
-EAGLE CREEK     N/A     33  17  51 MISG      30.08F
KOKOMO *+      MOCLDY    30  21  69 S20G25    30.07F WCI  18
MARION +       CLOUDY    30  20  68 SE13      30.11F WCI  20
MT COMFORT *+  PTCLDY    32  12  43 S16       30.12F WCI  21
SHELBYVILLE    PTCLDY    33  21  61 SE16      30.13F WCI  23
ZIONSVILLE +   PTCLDY    33  17  52 SE16G25   30.08F WCI  23

$$

INZ033-034-041-042-049-050-058-059-290300-
EAST CENTRAL INDIANA

CITY           SKY/WX    TMP DP  RH WIND       PRES   REMARKS
MUNCIE         MOCLDY    31  19  61 S14G22    30.11F WCI  21

$$

INZ060-061-067>069-081>083-085>088-290300-
SOUTHWEST INDIANA

CITY           SKY/WX    TMP DP  RH WIND       PRES   REMARKS
EVANSVILLE     PTCLDY    41  22  46 SE7       30.10F
HUNTINGBURG *+ CLEAR     36  19  51 SE12      30.12F
WASHINGTON +   PTCLDY    35  19  53 SE12      30.08F WCI  27

$$

INZ062-063-066-070>080-084-089>092-290300-
SOUTH CENTRAL AND SOUTHEAST INDIANA

CITY           SKY/WX    TMP DP  RH WIND       PRES   REMARKS
BLOOMINGTON    MOCLDY    35  16  45 SE15      30.09F WCI  25
NORTH VERNON + PTCLDY    34  18  51 SE9       30.17  WCI  26
SEYMOUR +      PTCLDY    34  19  55 SE9       30.16F WCI  26

$$



USA.gov is the U.S. government's official web portal to all federal, state and local government web resources and services.